TimeCDT,TemperatureF,Dew PointF,Humidity,Sea Level PressureIn,VisibilityMPH,Wind Direction,Wind SpeedMPH,Gust SpeedMPH,PrecipitationIn,Events,Conditions,WindDirDegrees,DateUTC
12:15 AM,49.3,36.7,62,29.85,10.0,SW,4.6,-,N/A,,Overcast,220,2013-10-20 05:15:00
12:35 AM,49.1,36.5,62,29.85,10.0,South,5.8,-,N/A,,Overcast,190,2013-10-20 05:35:00
12:55 AM,48.4,37.9,67,29.84,10.0,SSW,4.6,-,N/A,,Drizzle,200,2013-10-20 05:55:00
1:15 AM,47.7,37.9,69,29.85,10.0,South,4.6,-,N/A,,Mostly Cloudy,190,2013-10-20 06:15:00
1:35 AM,47.3,37.6,69,29.85,10.0,SSW,3.5,-,N/A,,Clear,210,2013-10-20 06:35:00
1:55 AM,46.6,37.4,70,29.85,10.0,SSW,4.6,-,N/A,,Clear,200,2013-10-20 06:55:00
2:15 AM,45.9,37.2,72,29.85,10.0,SSW,3.5,-,N/A,,Clear,210,2013-10-20 07:15:00
2:35 AM,45.9,36.9,71,29.84,10.0,SSW,3.5,-,N/A,,Clear,200,2013-10-20 07:35:00
2:55 AM,45.5,36.7,71,29.84,10.0,SW,4.6,-,N/A,,Clear,220,2013-10-20 07:55:00
3:15 AM,45.3,36.7,72,29.84,10.0,SW,3.5,-,N/A,,Clear,220,2013-10-20 08:15:00
3:35 AM,44.6,36.7,74,29.84,10.0,SSW,3.5,-,N/A,,Clear,210,2013-10-20 08:35:00
3:55 AM,43.7,36.7,76,29.84,10.0,Calm,Calm,-,N/A,,Clear,0,2013-10-20 08:55:00
4:15 AM,42.8,36.7,79,29.84,10.0,Calm,Calm,-,N/A,,Clear,0,2013-10-20 09:15:00
4:35 AM,41.7,36.3,81,29.84,10.0,Calm,Calm,-,N/A,,Clear,0,2013-10-20 09:35:00
4:45 AM,41.0,35.6,81,29.84,10.0,South,4.6,-,N/A,,Clear,180,2013-10-20 09:45:00
5:45 AM,41.0,35.6,81,29.85,10.0,SSW,8.1,-,N/A,,Clear,210,2013-10-20 10:45:00
6:45 AM,41.0,35.6,81,29.87,10.0,SSW,5.8,-,N/A,,Partly Cloudy,210,2013-10-20 11:45:00
7:45 AM,41.0,37.4,87,29.88,20.0,SSW,5.8,-,N/A,,Partly Cloudy,210,2013-10-20 12:45:00
8:45 AM,44.6,37.4,76,29.90,20.0,SW,8.1,-,N/A,,Mostly Cloudy,230,2013-10-20 13:45:00
9:45 AM,48.2,39.2,71,29.90,20.0,SSW,6.9,-,N/A,,Scattered Clouds,210,2013-10-20 14:45:00
10:45 AM,51.8,39.2,62,29.89,20.0,SSW,3.5,-,N/A,,Scattered Clouds,200,2013-10-20 15:45:00
11:45 AM,53.6,39.2,58,29.89,20.0,Calm,Calm,-,N/A,,Overcast,0,2013-10-20 16:45:00
12:45 PM,57.2,39.2,51,29.86,20.0,South,8.1,-,N/A,,Scattered Clouds,170,2013-10-20 17:45:00
1:45 PM,60.8,41.0,48,29.82,20.0,SSE,10.4,-,N/A,,Mostly Cloudy,160,2013-10-20 18:45:00
2:45 PM,62.6,41.0,45,29.80,15.0,South,13.8,-,N/A,,Mostly Cloudy,170,2013-10-20 19:45:00
4:45 PM,64.4,41.0,42,29.75,15.0,South,9.2,-,N/A,,Mostly Cloudy,170,2013-10-20 21:45:00
5:45 PM,66.2,37.4,35,29.75,12.0,South,11.5,-,N/A,,Overcast,180,2013-10-20 22:45:00
6:45 PM,64.4,37.4,37,29.77,10.0,South,13.8,-,N/A,,Mostly Cloudy,180,2013-10-20 23:45:00
7:45 PM,62.6,41.0,45,29.78,10.0,South,9.2,-,N/A,Rain,Light Rain,180,2013-10-21 00:45:00
8:45 PM,62.6,41.0,45,29.80,10.0,SSW,11.5,-,N/A,,Mostly Cloudy,210,2013-10-21 01:45:00
9:15 PM,60.8,42.4,51,29.80,10.0,SSW,8.1,16.1,N/A,Rain,Light Rain,210,2013-10-21 02:15:00
9:35 PM,60.8,42.4,51,29.82,10.0,SSW,6.9,-,N/A,Rain,Light Rain,210,2013-10-21 02:35:00
9:45 PM,62.6,42.8,48,29.82,10.0,SSW,9.2,-,N/A,Rain,Light Rain,210,2013-10-21 02:45:00
9:55 PM,59.9,42.8,53,29.82,10.0,SW,4.6,-,N/A,,Overcast,220,2013-10-21 02:55:00
10:15 PM,60.3,41.9,51,29.82,10.0,SW,8.1,-,N/A,,Mostly Cloudy,220,2013-10-21 03:15:00
10:35 PM,59.7,41.2,50,29.81,10.0,SSW,8.1,-,N/A,,Scattered Clouds,210,2013-10-21 03:35:00
10:55 PM,59.0,41.2,52,29.82,10.0,SW,5.8,-,N/A,,Scattered Clouds,220,2013-10-21 03:55:00
11:15 PM,58.3,41.5,54,29.82,10.0,SSW,4.6,-,N/A,,Scattered Clouds,210,2013-10-21 04:15:00
11:35 PM,58.1,41.9,55,29.82,10.0,SSW,5.8,-,N/A,,Mostly Cloudy,200,2013-10-21 04:35:00
11:55 PM,57.7,41.9,56,29.82,10.0,SSW,3.5,-,N/A,,Overcast,210,2013-10-21 04:55:00